Погода в Рауталахти

Россия / Республика Карелия     61°45′22″N   30°53′27″E
темп.,
°C
ветер,
м/с
пор.,
м/с
влажн.,
%
обл.,
%
осадки,
мм/ч
давл.,
гПа
погр.,
м
25 июня, сб
сб2500:00+13ю118676 0.0 101711
03:00+14зюз1189100 0.0 101810
06:00+17юз12795 0.0 101872
09:00+21ююз23668 0.0 1018362
12:00+22ююз336245 0.0 1019527
15:00+24ююз345518 0.0 1019596
18:00+22ююз336210 0.0 1019247
21:00+18ю237810 0.0 101975
26 июня, вс
вс2600:00+15юз11835 0.0 102011
03:00+16юз01885 0.0 102011
06:00+18юз11795 0.0 102056
09:00+23зюз24500 0.0 1020379
12:00+26зюз35425 0.0 1020986
15:00+27зюз36405 0.0 10201201
18:00+27з36414 0.0 10191129
21:00+22зсз24615 0.0 101971
27 июня, пн
пн2700:00+18сз22644 0.0 102026
03:00+17ссз22645 0.0 102131
06:00+19с13695 0.0 102291
09:00+23всв22573 0.0 1022496
12:00+27вюв11489 0.0 10231176
15:00+25юв1257100 0.0 1022530
18:00+25в236331 0.8 1023447
21:00+22в37649 0.8 1024254
28 июня, вт
вт2800:00+16всв3106215 0.1 1026290
03:00+15в495998 0.1 1027316
06:00+13всв49645 0.0 1028278
09:00+18в35495 0.0 1028573
12:00+22вюв23405 0.0 10281051
15:00+23ююв23373 0.0 10271249
18:00+22юв23380 0.0 1026899
21:00+18вюв25560 0.0 1027119
29 июня, ср
ср2900:00+13в27570 0.0 1028110
03:00+10в24630 0.0 102859
06:00+13в26610 0.0 1028160
09:00+18юв35480 0.0 1028518
12:00+20ю35403 0.0 1028641
15:00+21ююз34375 0.0 1027593
18:00+21ююз23370 0.0 1025415
21:00+16ю11570 0.0 102411